Time,TemperatureF,DewpointF,PressureIn,WindDirection,WindDirectionDegrees,WindSpeedMPH,WindSpeedGustMPH,Humidity,HourlyPrecipIn,Conditions,Clouds,dailyrainin,SoftwareType,DateUTC
2014-09-20 00:04:00,36.0,34.0,30.16,North,-999,0.0,1.0,93,0.00,,,0.00,,2014-09-20 04:04:00,
2014-09-20 00:13:00,36.0,34.0,30.16,North,-999,0.0,1.0,93,0.00,,,0.00,,2014-09-20 04:13:00,
2014-09-20 00:24:00,36.0,34.0,30.15,North,-999,0.0,2.0,94,0.00,,,0.00,,2014-09-20 04:24:00,
2014-09-20 00:33:00,36.0,34.0,30.15,North,-999,0.0,2.0,94,0.00,,,0.00,,2014-09-20 04:33:00,
2014-09-20 00:43:00,36.0,34.0,30.15,North,-999,0.0,2.0,94,0.00,,,0.00,,2014-09-20 04:43:00,
2014-09-20 00:53:00,36.0,35.0,30.14,North,-999,0.0,2.0,95,0.00,,,0.00,,2014-09-20 04:53:00,
2014-09-20 01:03:00,36.0,35.0,30.14,North,-999,0.0,2.0,95,0.00,,,0.00,,2014-09-20 05:03:00,
2014-09-20 01:23:00,36.0,35.0,30.14,North,-999,0.0,2.0,95,0.00,,,0.00,,2014-09-20 05:23:00,
2014-09-20 01:32:00,36.0,35.0,30.14,North,-999,0.0,2.0,95,0.00,,,0.00,,2014-09-20 05:32:00,
2014-09-20 01:42:00,36.0,35.0,30.14,North,-999,0.0,2.0,95,0.00,,,0.00,,2014-09-20 05:42:00,
2014-09-20 01:53:00,36.0,35.0,30.13,North,-999,0.0,1.0,95,0.00,,,0.00,,2014-09-20 05:53:00,
2014-09-20 02:02:00,36.0,35.0,30.13,North,-999,0.0,1.0,95,0.00,,,0.00,,2014-09-20 06:02:00,
2014-09-20 02:12:00,36.0,35.0,30.13,North,-999,0.0,1.0,95,0.00,,,0.00,,2014-09-20 06:12:00,
2014-09-20 02:22:00,37.0,36.0,30.13,North,-999,0.0,2.0,95,0.00,,,0.00,,2014-09-20 06:22:00,
2014-09-20 02:32:00,37.0,36.0,30.13,North,-999,0.0,2.0,95,0.00,,,0.00,,2014-09-20 06:32:00,
2014-09-20 02:43:00,37.0,36.0,30.13,North,-999,0.0,2.0,95,0.00,,,0.00,,2014-09-20 06:43:00,
2014-09-20 02:53:00,37.0,36.0,30.12,North,-999,0.0,2.0,95,0.00,,,0.00,,2014-09-20 06:53:00,
2014-09-20 03:02:00,37.0,36.0,30.12,North,-999,0.0,2.0,95,0.00,,,0.00,,2014-09-20 07:02:00,
2014-09-20 03:23:00,37.0,36.0,30.11,North,-999,0.0,2.0,96,0.00,,,0.00,,2014-09-20 07:23:00,
2014-09-20 03:32:00,37.0,36.0,30.11,North,-999,0.0,2.0,96,0.00,,,0.00,,2014-09-20 07:32:00,
2014-09-20 03:42:00,37.0,36.0,30.11,North,-999,0.0,2.0,96,0.00,,,0.00,,2014-09-20 07:42:00,
2014-09-20 03:53:00,38.0,37.0,30.10,North,-999,0.0,2.0,96,0.00,,,0.00,,2014-09-20 07:53:00,
2014-09-20 04:02:00,38.0,37.0,30.10,North,-999,0.0,2.0,96,0.00,,,0.00,,2014-09-20 08:02:00,
2014-09-20 04:12:00,38.0,37.0,30.10,North,-999,0.0,2.0,96,0.00,,,0.00,,2014-09-20 08:12:00,
2014-09-20 04:22:00,39.0,38.0,30.09,North,-999,0.0,4.0,96,0.00,,,0.00,,2014-09-20 08:22:00,
2014-09-20 04:32:00,39.0,38.0,30.09,North,-999,0.0,4.0,96,0.00,,,0.00,,2014-09-20 08:32:00,
2014-09-20 04:42:00,39.0,38.0,30.09,North,-999,0.0,4.0,96,0.00,,,0.00,,2014-09-20 08:42:00,
2014-09-20 05:22:00,54.0,49.0,30.06,West,270,4.0,11.0,82,0.00,,,0.00,,2014-09-20 09:22:00,
2014-09-20 05:34:00,54.0,49.0,30.06,West,270,4.0,11.0,82,0.00,,,0.00,,2014-09-20 09:34:00,
2014-09-20 05:44:00,54.0,49.0,30.06,West,270,4.0,11.0,82,0.00,,,0.00,,2014-09-20 09:44:00,
2014-09-20 06:24:00,55.0,50.0,30.05,West,270,4.0,11.0,82,0.00,,,0.00,,2014-09-20 10:24:00,
2014-09-20 06:33:00,55.0,50.0,30.05,West,270,4.0,11.0,82,0.00,,,0.00,,2014-09-20 10:33:00,
2014-09-20 06:43:00,55.0,50.0,30.05,West,270,4.0,11.0,82,0.00,,,0.00,,2014-09-20 10:43:00,
2014-09-20 06:54:00,56.0,50.0,30.04,West,270,5.0,15.0,81,0.00,,,0.00,,2014-09-20 10:54:00,
2014-09-20 07:03:00,56.0,50.0,30.04,West,270,5.0,15.0,81,0.00,,,0.00,,2014-09-20 11:03:00,
2014-09-20 07:23:00,57.0,51.0,30.04,West,270,5.0,14.0,81,0.00,,,0.00,,2014-09-20 11:23:00,
2014-09-20 07:32:00,57.0,51.0,30.04,West,270,5.0,14.0,81,0.00,,,0.00,,2014-09-20 11:32:00,
2014-09-20 07:43:00,57.0,51.0,30.04,West,270,5.0,14.0,81,0.00,,,0.00,,2014-09-20 11:43:00,
2014-09-20 07:52:00,57.0,51.0,30.03,West,270,5.0,13.0,81,0.00,,,0.00,,2014-09-20 11:52:00,
2014-09-20 08:03:00,57.0,51.0,30.03,West,270,5.0,13.0,81,0.00,,,0.00,,2014-09-20 12:03:00,
2014-09-20 08:22:00,59.0,53.0,30.02,West,270,4.0,11.0,80,0.00,,,0.00,,2014-09-20 12:22:00,
2014-09-20 08:32:00,59.0,53.0,30.02,West,270,4.0,11.0,80,0.00,,,0.00,,2014-09-20 12:32:00,
2014-09-20 08:52:00,61.0,54.0,30.01,West,270,5.0,13.0,78,0.00,,,0.00,,2014-09-20 12:52:00,
2014-09-20 09:12:00,61.0,54.0,30.01,West,270,5.0,13.0,78,0.00,,,0.00,,2014-09-20 13:12:00,
2014-09-20 09:22:00,63.0,56.0,30.00,West,270,6.0,16.0,77,0.00,,,0.00,,2014-09-20 13:22:00,
2014-09-20 09:32:00,63.0,56.0,30.00,West,270,6.0,16.0,77,0.00,,,0.00,,2014-09-20 13:32:00,
2014-09-20 09:42:00,63.0,56.0,30.00,West,270,6.0,16.0,77,0.00,,,0.00,,2014-09-20 13:42:00,
2014-09-20 09:52:00,65.0,56.0,29.99,West,270,6.0,18.0,74,0.00,,,0.00,,2014-09-20 13:52:00,
2014-09-20 10:03:00,65.0,56.0,29.99,West,270,6.0,18.0,74,0.00,,,0.00,,2014-09-20 14:03:00,
2014-09-20 10:12:00,65.0,56.0,29.99,West,270,6.0,18.0,74,0.00,,,0.00,,2014-09-20 14:12:00,
2014-09-20 10:22:00,66.0,56.0,29.99,West,270,8.0,22.0,71,0.00,,,0.00,,2014-09-20 14:22:00,
2014-09-20 10:33:00,66.0,56.0,29.99,West,270,8.0,22.0,71,0.00,,,0.00,,2014-09-20 14:33:00,
2014-09-20 10:43:00,66.0,56.0,29.99,West,270,8.0,22.0,71,0.00,,,0.00,,2014-09-20 14:43:00,
2014-09-20 10:52:00,67.0,57.0,29.98,West,270,8.0,20.0,71,0.00,,,0.00,,2014-09-20 14:52:00,
2014-09-20 11:02:00,67.0,57.0,29.98,West,270,8.0,20.0,71,0.00,,,0.00,,2014-09-20 15:02:00,
2014-09-20 11:12:00,67.0,57.0,29.98,West,270,8.0,20.0,71,0.00,,,0.00,,2014-09-20 15:12:00,
2014-09-20 11:22:00,68.0,58.0,29.97,West,270,8.0,18.0,70,0.00,,,0.00,,2014-09-20 15:22:00,
2014-09-20 11:34:00,68.0,58.0,29.97,West,270,8.0,18.0,70,0.00,,,0.00,,2014-09-20 15:34:00,
2014-09-20 11:44:00,68.0,58.0,29.97,West,270,8.0,18.0,70,0.00,,,0.00,,2014-09-20 15:44:00,
2014-09-20 11:54:00,69.0,59.0,29.95,West,270,7.0,21.0,70,0.00,,,0.00,,2014-09-20 15:54:00,
2014-09-20 12:04:00,69.0,59.0,29.95,West,270,7.0,21.0,70,0.00,,,0.00,,2014-09-20 16:04:00,
2014-09-20 12:24:00,68.0,59.0,29.94,West,270,7.0,18.0,72,0.00,,,0.00,,2014-09-20 16:24:00,
2014-09-20 12:33:00,68.0,59.0,29.94,West,270,7.0,18.0,72,0.00,,,0.00,,2014-09-20 16:33:00,
2014-09-20 12:44:00,68.0,59.0,29.94,West,270,7.0,18.0,72,0.00,,,0.00,,2014-09-20 16:44:00,
2014-09-20 12:54:00,69.0,59.0,29.94,West,270,6.0,16.0,70,0.00,,,0.00,,2014-09-20 16:54:00,
2014-09-20 13:03:00,69.0,59.0,29.94,West,270,6.0,16.0,70,0.00,,,0.00,,2014-09-20 17:03:00,
2014-09-20 13:23:00,70.0,60.0,29.93,West,270,7.0,19.0,70,0.00,,,0.00,,2014-09-20 17:23:00,
2014-09-20 13:34:00,70.0,60.0,29.93,West,270,7.0,19.0,70,0.00,,,0.00,,2014-09-20 17:34:00,
2014-09-20 13:44:00,70.0,60.0,29.93,West,270,7.0,19.0,70,0.00,,,0.00,,2014-09-20 17:44:00,
2014-09-20 13:53:00,69.0,59.0,29.92,West,270,7.0,19.0,71,0.00,,,0.00,,2014-09-20 17:53:00,
2014-09-20 14:03:00,69.0,59.0,29.92,West,270,7.0,19.0,71,0.00,,,0.00,,2014-09-20 18:03:00,
2014-09-20 14:23:00,71.0,61.0,29.91,West,270,6.0,16.0,71,0.00,,,0.00,,2014-09-20 18:23:00,
2014-09-20 14:33:00,71.0,61.0,29.91,West,270,6.0,16.0,71,0.00,,,0.00,,2014-09-20 18:33:00,
2014-09-20 14:42:00,71.0,61.0,29.91,West,270,6.0,16.0,71,0.00,,,0.00,,2014-09-20 18:42:00,
2014-09-20 14:52:00,72.0,61.0,29.89,West,270,6.0,19.0,69,0.00,,,0.00,,2014-09-20 18:52:00,
2014-09-20 15:02:00,72.0,61.0,29.89,West,270,6.0,19.0,69,0.00,,,0.00,,2014-09-20 19:02:00,
2014-09-20 15:12:00,72.0,61.0,29.89,West,270,6.0,19.0,69,0.00,,,0.00,,2014-09-20 19:12:00,
2014-09-20 15:22:00,72.0,60.0,29.88,West,270,8.0,24.0,67,0.00,,,0.00,,2014-09-20 19:22:00,
2014-09-20 15:32:00,72.0,60.0,29.88,West,270,8.0,24.0,67,0.00,,,0.00,,2014-09-20 19:32:00,
2014-09-20 15:42:00,72.0,60.0,29.88,West,270,8.0,24.0,67,0.00,,,0.00,,2014-09-20 19:42:00,
2014-09-20 15:53:00,73.0,61.0,29.87,West,270,8.0,24.0,65,0.00,,,0.00,,2014-09-20 19:53:00,
2014-09-20 16:03:00,73.0,61.0,29.87,West,270,8.0,24.0,65,0.00,,,0.00,,2014-09-20 20:03:00,
2014-09-20 16:23:00,72.0,60.0,29.87,West,270,7.0,23.0,65,0.00,,,0.00,,2014-09-20 20:23:00,
2014-09-20 16:33:00,72.0,60.0,29.87,West,270,7.0,23.0,65,0.00,,,0.00,,2014-09-20 20:33:00,
2014-09-20 16:42:00,72.0,60.0,29.87,West,270,7.0,23.0,65,0.00,,,0.00,,2014-09-20 20:42:00,